Weather in Riva del Garda

Italy     45°53′18″N   10°50′27″E
temp.,
°C
wind,
m/s
gust,
m/s
humid.,
%
clouds,
%
prec.,
mm/h
press.,
hPa
HPBL,
m
25 february, thu
thu2501:00+3nnw22470 0.0 103522
04:00+3nw22450 0.0 103422
07:00+2nnw22440 0.0 103422
10:00+8ene11540 0.0 1032203
13:00+11s11480 0.0 1031408
16:00+11s11580 0.0 1030191
19:00+5nw22600 0.0 103122
22:00+4nw22450 0.0 103322
26 february, fri
fri2601:00+3nw22440 0.0 103222
04:00+2nw22420 0.0 103122
07:00+2nnw22400 0.0 103122
10:00+8ene11440 0.0 1030113
13:00+11sse11440 0.0 1029429
16:00+10se11530 0.0 1027212
19:00+5nnw22640 0.0 102822
22:00+4nnw226116 0.0 102922
27 february, sat
sat2701:00+3nnw22558 0.0 102922
04:00+2n22520 0.0 102824
07:00+2n22510 0.0 102824
10:00+7e12530 0.0 1028219
13:00+10se21520 0.0 1027717
16:00+9se21590 0.0 1027592
19:00+3nw00870 0.0 102822
22:00+2n11910 0.0 103022
28 february, sun
sun2801:00+1nw11915 0.0 103122
04:00+2sw009386 0.0 103022
07:00+2s119793 0.0 103032
10:00+2sse119696 0.0 1030121
13:00+5s118398 0.1 1030371
16:00+5sse2183100 0.1 1028448
19:00+2ese009794 0.1 102926
22:00+1n119357 0.0 103022
1 march, mon
mon101:000nnw128733 0.0 103122
04:000nnw11850 0.0 103022
07:000nnw11830 0.0 103021
10:00+5se11670 0.0 1030340
13:00+8se21600 0.0 1030732
16:00+7sse21681 0.0 1029546
19:00+2ssw11998 0.0 103127
22:00+2sse119772 0.0 103348